Date,TemperatureHighF,TemperatureAvgF,TemperatureLowF,DewpointHighF,DewpointAvgF,DewpointLowF,HumidityHigh,HumidityAvg,HumidityLow,PressureMaxIn,PressureMinIn,WindSpeedMaxMPH,WindSpeedAvgMPH,GustSpeedMaxMPH,PrecipitationSumIn
2013-2-1,22.0,17.2,10.0,16.0,7.8,1.0,95,70,55,29.98,29.47,31,11,36,0.00
2013-2-2,22.0,15.1,9.0,13.0,6.5,1.0,93,72,54,29.98,29.72,22,7,26,0.00
2013-2-3,24.0,18.1,14.0,15.0,10.8,8.0,97,78,60,29.82,29.55,23,3,25,0.00
2013-2-4,20.0,15.7,12.0,15.0,9.2,5.0,95,79,58,29.76,29.55,29,8,34,0.00
2013-2-5,25.0,17.8,12.0,21.0,10.2,6.0,99,76,57,29.78,29.67,14,4,17,0.00
2013-2-6,28.0,21.5,12.0,23.0,13.3,-1.0,100,76,43,30.26,29.67,35,9,35,0.00
2013-2-7,23.0,15.4,8.0,11.0,3.7,-2.0,83,63,47,30.32,29.99,13,4,13,0.00
2013-2-8,30.0,22.1,18.0,22.0,15.8,6.0,100,80,54,30.15,29.63,29,5,34,0.00
2013-2-9,19.0,11.9,6.0,18.0,5.0,-5.0,100,78,50,30.28,29.66,28,10,28,0.00
2013-2-10,31.0,16.0,5.0,3.0,-0.5,-6.0,75,52,26,30.34,29.86,37,4,40,0.00
2013-2-11,40.0,33.6,27.0,39.0,26.9,-2.0,100,82,29,30.11,29.50,37,15,39,0.04
2013-2-12,34.0,30.9,27.0,32.0,24.8,20.0,93,81,74,29.78,29.55,34,10,40,0.00
2013-2-13,34.0,28.5,21.0,23.0,19.5,15.0,90,73,55,29.73,29.55,14,5,17,0.00
2013-2-14,34.0,29.1,22.0,25.0,19.5,16.0,83,71,62,29.79,29.55,24,6,26,0.00
2013-2-15,43.0,34.7,25.0,27.0,23.4,14.0,100,67,49,29.87,29.71,22,9,24,0.00
2013-2-16,28.0,22.1,14.0,25.0,13.3,0.0,100,72,55,29.86,29.50,26,6,27,0.00
2013-2-17,20.0,12.2,6.0,4.0,-0.3,-6.0,75,61,38,29.91,29.42,35,13,40,0.07
2013-2-18,27.0,12.9,2.0,5.0,-1.6,-7.0,75,56,40,29.96,29.69,26,9,30,0.00
2013-2-19,39.0,30.5,20.0,34.0,20.1,3.0,100,70,48,29.93,29.45,38,12,44,0.19
2013-2-20,28.0,21.7,18.0,28.0,13.4,5.0,100,74,52,29.73,29.48,37,12,40,0.00
2013-2-21,20.0,14.3,11.0,13.0,8.0,3.0,93,79,70,30.19,29.66,29,10,31,0.00
2013-2-22,33.0,23.7,15.0,23.0,17.7,11.0,97,82,67,30.21,29.97,20,5,23,0.00
2013-2-23,35.0,31.9,29.0,33.0,28.5,22.0,100,90,75,30.07,29.68,22,8,25,0.00
2013-2-24,33.0,29.9,25.0,33.0,29.2,23.0,100,99,89,29.97,29.65,19,5,23,0.05
2013-2-25,37.0,30.2,24.0,29.0,25.5,23.0,100,87,64,30.15,29.86,10,4,11,0.02
2013-2-26,39.0,32.2,26.0,33.0,25.6,22.0,99,81,62,30.16,29.64,27,4,27,0.01
2013-2-27,41.0,35.7,28.0,37.0,32.6,22.0,100,90,67,29.90,29.40,27,6,34,0.32
2013-2-28,39.0,34.0,29.0,38.0,33.4,28.0,100,98,87,29.53,29.42,13,4,13,0.06